Weather History for Drummond Island, MI

Change the Weather History Date:

Friday, March 29, 2013

  Actual Average (KCIU) Record (KCIU)
Temperature  
Mean Temperature 34 °F -  
Max Temperature 44 °F 44 °F 58 °F (1993)
Min Temperature 25 °F 22 °F 8 °F (1983)
Degree Days  
Heating Degree Days 30    
Moisture  
Dew Point 24 °F    
Average Humidity 71    
Maximum Humidity 99    
Minimum Humidity 35    
Precipitation  
Precipitation 0.00 in - - ()
Sea Level Pressure  
Sea Level Pressure 30.20 in    
Wind  
Wind Speed 4 mph (WNW)    
Max Wind Speed 8 mph    
Max Gust Speed -    
Visibility 10 miles    
Events      
Averages and records for this station are not official NWS values.
T = Trace of Precipitation, MM = Missing Value Source: NWS Daily Summary

Daily Weather History Graph

Daily Weather History Graph

Search for Another Location

Airport:

Trip Planner

Search our weather history database for the weather conditions in past years. The results will help you decide how hot, cold, wet, or windy it might be!

Date:

Astronomy

Mar. 29, 2013 Rise Set
Actual Time 7:20 AM EDT 7:59 PM EDT
Civil Twilight 6:50 AM EDT 8:30 PM EDT
Nautical Twilight 6:14 AM EDT 9:05 PM EDT
Astronomical Twilight 5:37 AM EDT 9:43 PM EDT
Moon 11:10 PM EDT (3/29) 8:18 AM EDT (3/29)
Length of Visible Light 13h 39m
Length of Day
12h 39m
Waning Gibbous, 93% of the Moon is Illuminated
Mar 29
Waning Gibbous
Apr 3
Last Quarter
Apr 10
New
Apr 18
First Quarter
Apr 25
Full

Hourly Weather History & Observations

Time (EDT) Temp. Windchill Dew Point Humidity Pressure Visibility Wind Dir Wind Speed Gust Speed Precip Events Conditions
12:17 AM 29.7 °F 23.7 °F 24.3 °F 80% 30.21 in 10.0 mi WNW 5.8 mph - N/A   Clear
12:37 AM 29.3 °F 23.2 °F 24.4 °F 82% 30.22 in 10.0 mi NW 5.8 mph - N/A   Clear
12:57 AM 29.3 °F 23.2 °F 25.2 °F 85% 30.22 in 10.0 mi NW 5.8 mph - N/A   Clear
1:16 AM 29.3 °F 24.3 °F 25.7 °F 86% 30.21 in 10.0 mi NW 4.6 mph - N/A   Clear
1:37 AM 29.1 °F 24.1 °F 25.7 °F 87% 30.21 in 10.0 mi WNW 4.6 mph - N/A   Clear
1:57 AM 28.9 °F 23.9 °F 26.1 °F 89% 30.21 in 10.0 mi NW 4.6 mph - N/A   Clear
2:16 AM 28.9 °F 23.9 °F 26.4 °F 90% 30.21 in 10.0 mi WNW 4.6 mph - N/A   Clear
2:37 AM 28.4 °F 23.3 °F 26.6 °F 93% 30.21 in 10.0 mi WNW 4.6 mph - N/A   Clear
2:57 AM 28.4 °F 23.3 °F 26.6 °F 93% 30.21 in 10.0 mi West 4.6 mph - N/A   Clear
3:16 AM 28.0 °F 21.7 °F 26.6 °F 94% 30.21 in 10.0 mi West 5.8 mph - N/A   Clear
3:37 AM 27.9 °F 22.6 °F 26.8 °F 96% 30.21 in 10.0 mi WNW 4.6 mph - N/A   Clear
3:57 AM 27.7 °F 22.4 °F 26.8 °F 96% 30.21 in 10.0 mi WNW 4.6 mph - N/A   Clear
4:16 AM 27.5 °F 22.2 °F 26.6 °F 96% 30.21 in 10.0 mi WNW 4.6 mph - N/A   Clear
4:37 AM 27.3 °F - 26.6 °F 97% 30.21 in 10.0 mi Calm Calm - N/A   Clear
4:56 AM 27.5 °F 23.6 °F 26.8 °F 97% 30.21 in 10.0 mi NW 3.5 mph - N/A   Clear
5:17 AM 27.5 °F - 26.6 °F 96% 30.21 in 10.0 mi Calm Calm - N/A   Clear
5:37 AM 26.6 °F - 25.7 °F 96% 30.21 in 10.0 mi Calm Calm - N/A   Clear
5:56 AM 26.6 °F 22.6 °F 25.9 °F 97% 30.21 in 10.0 mi WNW 3.5 mph - N/A   Clear
6:17 AM 26.2 °F - 25.5 °F 97% 30.21 in 10.0 mi Calm Calm - N/A   Clear
6:36 AM 26.2 °F 20.7 °F 25.7 °F 98% 30.21 in 10.0 mi WNW 4.6 mph - N/A   Clear
6:57 AM 26.2 °F 22.1 °F 25.7 °F 98% 30.21 in 10.0 mi NW 3.5 mph - N/A   Clear
7:17 AM 26.1 °F - 25.5 °F 98% 30.21 in 10.0 mi Calm Calm - N/A   Clear
7:36 AM 25.2 °F - 24.8 °F 99% 30.22 in 10.0 mi Calm Calm - N/A   Clear
7:57 AM 25.7 °F - 25.5 °F 99% 30.23 in 10.0 mi Calm Calm - N/A   Clear
8:17 AM 27.0 °F 23.0 °F 26.4 °F 98% 30.23 in 10.0 mi WNW 3.5 mph - N/A   Clear
8:36 AM 27.9 °F - 26.6 °F 95% 30.23 in 10.0 mi Calm Calm - N/A   Clear
8:57 AM 29.1 °F 25.4 °F 27.1 °F 92% 30.23 in 10.0 mi West 3.5 mph - N/A   Clear
9:17 AM 30.2 °F - 27.3 °F 89% 30.23 in 10.0 mi Calm Calm - N/A   Clear
9:36 AM 31.1 °F - 27.3 °F 86% 30.24 in 10.0 mi Calm Calm - N/A   Clear
9:57 AM 31.6 °F - 27.1 °F 83% 30.23 in 10.0 mi Calm Calm - N/A   Clear
10:17 AM 32.0 °F - 27.3 °F 83% 30.23 in 10.0 mi Calm Calm - N/A   Clear
10:37 AM 32.5 °F - 27.3 °F 81% 30.23 in 10.0 mi Calm Calm - N/A   Clear
10:57 AM 34.0 °F 29.8 °F 27.7 °F 78% 30.23 in 10.0 mi WNW 4.6 mph - N/A   Clear
11:16 AM 34.0 °F 31.0 °F 27.9 °F 78% 30.23 in 10.0 mi West 3.5 mph - N/A   Clear
11:37 AM 34.3 °F - 27.7 °F 77% 30.23 in 10.0 mi Calm Calm - N/A   Clear
11:57 AM 35.4 °F - 27.3 °F 72% 30.24 in 10.0 mi Calm Calm - N/A   Clear
12:16 PM 36.3 °F - 27.0 °F 69% 30.23 in 10.0 mi Calm Calm - N/A   Clear
12:57 PM 38.3 °F 35.9 °F 25.2 °F 59% 30.22 in 10.0 mi WNW 3.5 mph - N/A   Clear
1:16 PM 39.6 °F 36.3 °F 26.4 °F 59% 30.22 in 10.0 mi WNW 4.6 mph - N/A   Clear
1:37 PM 40.1 °F 38.0 °F 26.8 °F 59% 30.22 in 10.0 mi WNW 3.5 mph - N/A   Clear
1:57 PM 41.0 °F 39.0 °F 27.1 °F 58% 30.21 in 10.0 mi West 3.5 mph - N/A   Clear
2:16 PM 41.9 °F 39.0 °F 27.3 °F 56% 30.21 in 10.0 mi West 4.6 mph - N/A   Clear
2:37 PM 42.4 °F - 25.5 °F 51% 30.21 in 10.0 mi Calm Calm - N/A   Clear
2:57 PM 43.2 °F 41.5 °F 25.5 °F 50% 30.20 in 10.0 mi WNW 3.5 mph - N/A   Clear
3:17 PM 43.7 °F 41.1 °F 25.2 °F 48% 30.19 in 10.0 mi WNW 4.6 mph - N/A   Clear
3:37 PM 43.9 °F 41.3 °F 23.5 °F 45% 30.19 in 10.0 mi WNW 4.6 mph - N/A   Clear
3:56 PM 44.2 °F 42.7 °F 23.0 °F 43% 30.19 in 10.0 mi West 3.5 mph - N/A   Clear
4:17 PM 44.8 °F - 18.7 °F 35% 30.18 in 10.0 mi Calm Calm - N/A   Clear
4:37 PM 44.6 °F 42.2 °F 23.0 °F 43% 30.18 in 10.0 mi West 4.6 mph - N/A   Clear
4:56 PM 44.2 °F 40.3 °F 21.0 °F 40% 30.18 in 10.0 mi West 6.9 mph - N/A   Clear
5:17 PM 44.6 °F 43.1 °F 18.9 °F 36% 30.18 in 10.0 mi West 3.5 mph - N/A   Clear
5:36 PM 44.1 °F 40.8 °F 19.0 °F 37% 30.18 in 10.0 mi WNW 5.8 mph - N/A   Clear
5:57 PM 43.3 °F 38.6 °F 18.3 °F 37% 30.17 in 10.0 mi WNW 8.1 mph - N/A   Clear
6:17 PM 43.2 °F 40.5 °F 19.0 °F 38% 30.18 in 10.0 mi WNW 4.6 mph - N/A   Clear
6:36 PM 43.0 °F 39.5 °F 18.5 °F 37% 30.18 in 10.0 mi NW 5.8 mph - N/A   Clear
6:57 PM 41.7 °F 37.3 °F 19.6 °F 41% 30.18 in 10.0 mi NW 6.9 mph - N/A   Clear
7:17 PM 40.5 °F 37.3 °F 20.7 °F 45% 30.18 in 10.0 mi NW 4.6 mph - N/A   Clear
7:36 PM 39.7 °F 37.6 °F 20.5 °F 46% 30.18 in 10.0 mi WNW 3.5 mph - N/A   Clear
7:57 PM 38.7 °F 35.2 °F 21.4 °F 50% 30.18 in 10.0 mi WNW 4.6 mph - N/A   Clear
8:17 PM 38.3 °F 34.8 °F 21.4 °F 51% 30.18 in 10.0 mi WNW 4.6 mph - N/A   Clear
8:37 PM 38.3 °F 34.8 °F 21.0 °F 50% 30.18 in 10.0 mi WNW 4.6 mph - N/A   Clear
8:57 PM 37.8 °F 33.3 °F 21.2 °F 51% 30.18 in 10.0 mi WNW 5.8 mph - N/A   Clear
9:16 PM 37.8 °F 35.3 °F 21.2 °F 51% 30.18 in 10.0 mi West 3.5 mph - N/A   Clear
9:37 PM 36.7 °F - 21.0 °F 53% 30.18 in 10.0 mi Calm Calm - N/A   Clear
9:57 PM 36.0 °F 33.3 °F 21.0 °F 55% 30.18 in 10.0 mi West 3.5 mph - N/A   Clear
10:16 PM 36.0 °F 33.3 °F 20.8 °F 54% 30.18 in 10.0 mi WNW 3.5 mph - N/A   Clear
10:37 PM 35.2 °F 32.4 °F 21.0 °F 56% 30.18 in 10.0 mi WNW 3.5 mph - N/A   Clear
10:57 PM 34.0 °F - 21.0 °F 59% 30.18 in 10.0 mi Calm Calm - N/A   Clear
11:16 PM 32.2 °F - 21.2 °F 64% 30.18 in 10.0 mi Calm Calm - N/A   Clear
11:37 PM 30.2 °F 26.7 °F 21.6 °F 70% 30.18 in 10.0 mi West 3.5 mph - N/A   Clear
11:57 PM 27.3 °F - 21.7 °F 80% 30.18 in 10.0 mi Calm Calm - N/A   Clear